Change the Weather History Date:

Wednesday, April 10, 2013

  Actual Average (KABR) Record (KABR)
Temperature  
Mean Temperature 28 °F 42 °F  
Max Temperature 33 °F 54 °F 88 °F (1977)
Min Temperature 23 °F 30 °F 16 °F (1997)
Degree Days  
Heating Degree Days 37 23  
Month to date heating degree days 255  
Since 1 July heating degree days 7806  
Cooling Degree Days 0 0  
Month to date cooling degree days 0  
Year to date cooling degree days 0  
Moisture  
Dew Point 21 °F    
Average Humidity 72    
Maximum Humidity 86    
Minimum Humidity 56    
Precipitation  
Precipitation 0.01 in 0.05 in 1.07 in (1945)
Month to date precipitation 0.47  
Year to date precipitation 2.65  
Snow  
Snow 0.00 in - - ()
Month to date snowfall  
Since 1 July snowfall  
Snow Depth -    
Sea Level Pressure  
Sea Level Pressure 30.15 in    
Wind  
Wind Speed 17 mph (North)    
Max Wind Speed 29 mph    
Max Gust Speed 34 mph    
Visibility 10 miles    
Events Snow    
T = Trace of Precipitation, MM = Missing Value Source: NWS Daily Summary

Daily Weather History Graph

Daily Weather History Graph

Search for Another Location

Airport or City:

Trip Planner

Search our weather history database for the weather conditions in past years. The results will help you decide how hot, cold, wet, or windy it might be!

Date:

Astronomy

Apr. 10, 2013 Rise Set
Actual Time 6:54 AM CDT 8:13 PM CDT
Civil Twilight 6:23 AM CDT 8:44 PM CDT
Nautical Twilight 5:46 AM CDT 9:21 PM CDT
Astronomical Twilight 5:06 AM CDT 10:01 PM CDT
Moon 6:49 AM CDT (4/10) 8:54 PM CDT (4/10)
Length of Visible Light 14h 20m
Length of Day
13h 18m
New Moon, 0% of the Moon is Illuminated
Apr 10
New Moon
Apr 18
First Quarter
Apr 25
Full
May 2
Last Quarter
May 9
New

Hourly Weather History & Observations

Time (CDT) Temp. Windchill Dew Point Humidity Pressure Visibility Wind Dir Wind Speed Gust Speed Precip Events Conditions
12:15 AM 24.8 °F 9.6 °F 19.4 °F 80% 30.24 in 10.0 mi North 23.0 mph 26.5 mph N/A   Unknown
12:35 AM 24.8 °F 12.9 °F 19.4 °F 80% 30.31 in 10.0 mi North 13.8 mph - N/A   Unknown
12:55 AM 24.8 °F 12.9 °F 19.4 °F 80% 30.31 in 10.0 mi North 13.8 mph - N/A   Unknown
1:15 AM 24.8 °F 14.6 °F 19.4 °F 80% 30.33 in 10.0 mi NNW 10.4 mph - N/A   Unknown
1:35 AM 24.8 °F 12.9 °F 19.4 °F 80% 30.32 in 10.0 mi North 13.8 mph - N/A   Unknown
1:55 AM 24.8 °F 12.4 °F 19.4 °F 80% 30.31 in 10.0 mi North 15.0 mph - N/A   Unknown
2:15 AM 24.8 °F 10.7 °F 19.4 °F 80% 30.28 in 10.0 mi North 19.6 mph - N/A   Unknown
2:55 AM 24.8 °F 10.3 °F 19.4 °F 80% 30.23 in 10.0 mi North 20.7 mph 26.5 mph N/A   Unknown
3:15 AM 24.8 °F 8.1 °F 19.4 °F 80% 30.13 in 10.0 mi NNE 28.8 mph 34.5 mph N/A   Unknown
3:35 AM 24.8 °F 11.1 °F 19.4 °F 80% 30.16 in 10.0 mi NNE 18.4 mph 32.2 mph N/A   Unknown
3:55 AM 23.0 °F 7.2 °F 19.4 °F 86% 30.15 in 10.0 mi NNE 23.0 mph 32.2 mph N/A   Unknown
4:15 AM 23.0 °F 8.7 °F 19.4 °F 86% 30.16 in 10.0 mi NNE 18.4 mph 26.5 mph N/A   Unknown
4:35 AM 24.8 °F 11.9 °F 19.4 °F 80% 30.19 in 10.0 mi NNE 16.1 mph - N/A   Unknown
4:55 AM 24.8 °F 13.4 °F 19.4 °F 80% 30.21 in 10.0 mi North 12.7 mph - N/A   Unknown
5:15 AM 24.8 °F 11.9 °F 19.4 °F 80% 30.18 in 10.0 mi North 16.1 mph 20.7 mph N/A   Unknown
5:35 AM 24.8 °F 12.4 °F 19.4 °F 80% 30.20 in 10.0 mi North 15.0 mph - N/A   Unknown
5:55 AM 24.8 °F 13.4 °F 19.4 °F 80% 30.21 in 10.0 mi North 12.7 mph - N/A   Unknown
6:15 AM 24.8 °F 12.4 °F 19.4 °F 80% 30.22 in 10.0 mi North 15.0 mph - N/A   Unknown
6:35 AM 24.8 °F 13.4 °F 19.4 °F 80% 30.24 in 10.0 mi North 12.7 mph - N/A   Unknown
6:55 AM 24.8 °F 14.0 °F 19.4 °F 80% 30.24 in 10.0 mi North 11.5 mph - N/A   Unknown
7:15 AM 24.8 °F 11.9 °F 19.4 °F 80% 30.22 in 10.0 mi North 16.1 mph - N/A   Unknown
7:35 AM 24.8 °F 12.4 °F 19.4 °F 80% 30.23 in 10.0 mi North 15.0 mph - N/A   Unknown
7:55 AM 24.8 °F 11.5 °F 19.4 °F 80% 30.23 in 10.0 mi North 17.3 mph - N/A   Unknown
8:15 AM 24.8 °F 11.5 °F 19.4 °F 80% 30.23 in 10.0 mi North 17.3 mph - N/A   Unknown
8:35 AM 24.8 °F 11.1 °F 19.4 °F 80% 30.22 in 10.0 mi North 18.4 mph - N/A   Unknown
8:55 AM 26.6 °F 13.8 °F 19.4 °F 74% 30.22 in 10.0 mi North 17.3 mph - N/A   Unknown
9:15 AM 26.6 °F 13.8 °F 19.4 °F 74% 30.21 in 10.0 mi North 17.3 mph - N/A   Unknown
9:35 AM 26.6 °F 13.1 °F 19.4 °F 74% 30.20 in 10.0 mi North 19.6 mph - N/A   Unknown
9:55 AM 28.4 °F 16.6 °F 19.4 °F 69% 30.20 in 10.0 mi North 16.1 mph - N/A   Unknown
10:35 AM 30.2 °F 18.9 °F 19.4 °F 64% 30.19 in 10.0 mi NNE 16.1 mph - N/A   Unknown
10:55 AM 32.0 °F 21.2 °F 19.4 °F 60% 30.20 in 10.0 mi NNE 16.1 mph - N/A   Unknown
11:15 AM 32.0 °F 22.1 °F 19.4 °F 60% 30.20 in 10.0 mi NNE 13.8 mph - N/A   Unknown
11:35 AM 32.0 °F 20.8 °F 21.2 °F 64% 30.19 in 10.0 mi NNE 17.3 mph - N/A   Unknown
12:15 PM 32.0 °F 22.5 °F 21.2 °F 64% 30.19 in 10.0 mi NNE 12.7 mph - N/A   Unknown
12:35 PM 32.0 °F 22.1 °F 19.4 °F 60% 30.19 in 10.0 mi North 13.8 mph - N/A   Unknown
12:55 PM 32.0 °F 22.5 °F 19.4 °F 60% 30.18 in 10.0 mi NNE 12.7 mph - N/A   Unknown
1:15 PM 33.8 °F 24.3 °F 23.0 °F 65% 30.17 in 10.0 mi NNE 13.8 mph - N/A   Unknown
1:35 PM 32.0 °F 21.6 °F 21.2 °F 64% 30.16 in 10.0 mi NNE 15.0 mph - N/A   Unknown
1:55 PM 32.0 °F 21.6 °F 19.4 °F 60% 30.16 in 10.0 mi NNE 15.0 mph - N/A   Unknown
2:15 PM 32.0 °F 22.1 °F 19.4 °F 60% 30.16 in 10.0 mi North 13.8 mph - N/A   Unknown
2:35 PM 32.0 °F 21.6 °F 19.4 °F 60% 30.16 in 10.0 mi North 15.0 mph - N/A   Unknown
2:55 PM 33.8 °F 23.2 °F 19.4 °F 56% 30.16 in 10.0 mi North 17.3 mph - N/A   Unknown
3:15 PM 33.8 °F 23.9 °F 19.4 °F 56% 30.16 in 10.0 mi North 15.0 mph 19.6 mph N/A   Unknown
3:35 PM 32.0 °F 22.1 °F 19.4 °F 60% 30.16 in 10.0 mi North 13.8 mph - N/A   Unknown
3:55 PM 32.0 °F 22.1 °F 19.4 °F 60% 30.15 in 10.0 mi North 13.8 mph - N/A   Unknown
4:15 PM 32.0 °F 21.2 °F 19.4 °F 60% 30.11 in 10.0 mi North 16.1 mph - N/A   Unknown
4:35 PM 32.0 °F 21.2 °F 21.2 °F 64% 30.12 in 10.0 mi North 16.1 mph 21.9 mph N/A   Unknown
4:55 PM 32.0 °F 20.1 °F 19.4 °F 60% 30.10 in 10.0 mi North 19.6 mph - N/A   Unknown
5:15 PM 32.0 °F 20.1 °F 21.2 °F 64% 30.10 in 10.0 mi North 19.6 mph 24.2 mph N/A   Unknown
5:35 PM 32.0 °F 20.5 °F 21.2 °F 64% 30.09 in 10.0 mi North 18.4 mph 21.9 mph N/A   Unknown
5:55 PM 32.0 °F 20.8 °F 21.2 °F 64% 30.08 in 10.0 mi North 17.3 mph 20.7 mph N/A   Unknown
6:15 PM 32.0 °F 20.1 °F 21.2 °F 64% 30.06 in 10.0 mi NNE 19.6 mph 26.5 mph N/A   Unknown
6:35 PM 32.0 °F 20.5 °F 21.2 °F 64% 30.06 in 10.0 mi NNE 18.4 mph 24.2 mph N/A   Unknown
6:55 PM 32.0 °F 22.1 °F 21.2 °F 64% 30.08 in 10.0 mi NNE 13.8 mph - N/A   Unknown
7:15 PM 32.0 °F 21.2 °F 23.0 °F 69% 30.05 in 10.0 mi NNE 16.1 mph - N/A   Unknown
7:35 PM 32.0 °F 20.8 °F 23.0 °F 69% 30.03 in 10.0 mi North 17.3 mph 21.9 mph N/A   Unknown
7:55 PM 32.0 °F 21.2 °F 23.0 °F 69% 30.03 in 10.0 mi NNE 16.1 mph 21.9 mph N/A   Unknown
8:15 PM 32.0 °F 20.1 °F 23.0 °F 69% 30.01 in 10.0 mi North 19.6 mph 24.2 mph N/A   Unknown
8:35 PM 32.0 °F 20.5 °F 24.8 °F 75% 30.02 in 10.0 mi North 18.4 mph - N/A   Unknown
8:55 PM 32.0 °F 21.2 °F 24.8 °F 75% 30.02 in 10.0 mi North 16.1 mph 25.3 mph N/A   Unknown
9:15 PM 30.2 °F 18.9 °F 24.8 °F 80% 30.03 in 10.0 mi North 16.1 mph 20.7 mph N/A   Unknown
9:35 PM 32.0 °F 21.6 °F 24.8 °F 75% 30.02 in 10.0 mi North 15.0 mph - N/A   Unknown
9:55 PM 32.0 °F 21.6 °F 24.8 °F 75% 30.02 in 10.0 mi North 15.0 mph - N/A   Unknown
10:15 PM 32.0 °F 22.1 °F 24.8 °F 75% 30.04 in 10.0 mi North 13.8 mph - N/A   Unknown
10:35 PM 32.0 °F 21.6 °F 26.6 °F 80% 30.02 in 10.0 mi North 15.0 mph - N/A   Unknown
10:55 PM 32.0 °F 26.4 °F 24.8 °F 75% 30.03 in 10.0 mi NE 5.8 mph - N/A   Unknown
11:15 PM 32.0 °F 24.2 °F 26.6 °F 80% 30.03 in 10.0 mi NE 9.2 mph - N/A   Unknown
11:35 PM 32.0 °F 23.6 °F 26.6 °F 80% 30.02 in 10.0 mi North 10.4 mph - N/A Snow Light Snow
11:55 PM 32.0 °F 23.6 °F 26.6 °F 80% 30.01 in 9.0 mi North 10.4 mph - 0.01 in Snow Light Snow